#timestamp,LO_Frequency,Hit,StdDev 
1505638815.7,286047000.1,N
1505638835.5,286046997.4,N
1505638855.3,286046997.2,N
1505638875.2,286046996.6,N
1505638895.0,286047001.0,N
1505638895.9,286047001.0,N
1505638915.7,286047001.5,N
1505638935.6,286046999.7,N
1505638955.4,286047005.7,N
1505638975.2,286047004.2,N
1505638995.1,286047001.4,N
1505638996.0,286047001.4,N
1505639015.8,286047000.9,N
1505639035.6,286046999.7,N
1505639055.5,286046998.9,N
1505639075.3,286046996.5,N
1505639095.1,286047000.2,N
1505639115.9,286046998.5,N
1505639135.7,286046997.7,N
1505639155.5,286046997.4,N
1505639175.3,286046996.9,N
1505639195.2,286046995.8,N
1505639215.0,286046996.3,N
1505639215.9,286046996.3,N
1505639235.7,286046993.9,N
1505639255.6,286046994.8,N
1505639275.4,286046993.3,N
1505639295.2,286046994.8,N
1505639315.1,286046992.0,N
1505639316.0,286046992.0,N
1505639335.8,286046994.0,N
1505639355.6,286046997.4,N
1505639375.5,286046996.0,N
1505639395.3,286046996.2,N
1505639415.1,286046995.8,N
1505639435.9,286046996.2,N
1505639455.7,286046993.8,N
1505639475.5,286046993.4,N
1505639495.4,286046995.9,N
1505639515.2,286046996.4,N
1505639535.0,286046996.0,N
1505639535.9,286046996.0,N
1505639555.8,286046992.6,Y
1505639575.6,286046994.9,P
1505639595.4,286046994.9,P
1505639615.3,286046998.4,N
1505639635.1,286047000.4,N
1505639636.0,286047000.4,N
1505639655.8,286047000.3,N
1505639675.7,286047004.1,N
1505639695.5,286047003.0,N
1505639715.3,286047002.0,N
1505639735.2,286046998.2,N
1505639755.9,286047002.6,N
1505639775.7,286047001.5,N
1505639795.5,286047003.6,N
1505639815.4,286047004.1,N
1505639835.2,286047004.3,N
1505639855.0,286047001.3,N
1505639855.9,286047001.3,N
1505639875.8,286047004.1,N
1505639895.6,286047001.7,N
1505639915.4,286046998.1,N
1505639935.3,286046999.1,N
1505639955.1,286046998.3,N
1505639956.0,286046998.3,N
1505639975.8,286047000.5,N
1505639995.7,286046997.3,N
1505640015.5,286046997.3,N
1505640035.3,286046996.5,N
1505640055.2,286046998.0,N
1505640075.9,286046997.4,N
1505640095.7,286046998.1,N
1505640115.6,286046996.5,N
1505640135.4,286046997.5,N
1505640155.2,286046994.9,N
1505640175.0,286046995.9,N
1505640176.0,286046995.9,N
1505640195.8,286046994.1,N
1505640215.6,286046995.5,N
1505640235.4,286046994.9,N
1505640255.3,286046996.1,N
1505640275.1,286046996.5,N
1505640295.8,286046993.5,N
1505640315.7,286046997.5,N
1505640335.5,286046994.1,N
1505640355.3,286046993.6,N
1505640375.2,286046992.6,N
1505640395.9,286046993.8,N
1505640415.7,286046992.1,Y
1505640435.6,286046992.1,P
1505640455.4,286046997.6,N
1505640475.2,286046999.1,N
1505640495.1,286047000.4,N
1505640496.0,286047000.4,N
1505640515.8,286047000.7,N
1505640535.6,286047000.1,N
1505640555.5,286047002.4,N
1505640575.3,286046998.4,N
1505640595.1,286046998.6,N
1505640615.8,286047000.8,N
1505640635.7,286046998.7,N
1505640655.5,286046996.6,N
1505640675.3,286046998.9,N
1505640695.2,286046995.2,N
1505640715.9,286046998.4,N
1505640735.7,286046997.7,N
1505640755.6,286046997.4,N
1505640775.4,286046998.7,N
1505640795.2,286046998.1,N
1505640815.1,286046997.0,N
1505640816.0,286046997.0,N
1505640835.8,286046996.5,N
1505640855.6,286046999.4,N
1505640875.5,286046997.4,N
1505640895.3,286046995.5,N
1505640915.1,286046994.2,N
1505640935.9,286046996.7,N
1505640955.7,286046999.6,N
1505640975.5,286046998.7,N
1505640995.4,286046995.7,N
1505641015.2,286046995.8,N
1505641035.0,286046995.7,N
1505641035.9,286046995.7,N
1505641055.8,286046996.2,N
1505641075.6,286046996.2,N
1505641095.4,286046994.0,Y
1505641115.3,286046996.2,P
1505641135.1,286046997.5,P
1505641136.0,286046997.5,P
1505641155.8,286046993.9,Y
1505641175.7,286046999.2,P
1505641195.5,286046999.2,N
1505641215.3,286046998.4,N
1505641235.2,286046998.6,N
1505641255.9,286046997.6,Y
1505641275.7,286047000.8,P
1505641295.6,286047002.0,N
1505641315.4,286047001.1,N
1505641335.2,286046999.3,N
1505641355.0,286047003.2,N
1505641356.0,286047003.2,N
1505641375.8,286047002.7,N
1505641395.6,286047000.4,N
1505641415.4,286046997.2,N
1505641435.3,286047002.5,N
1505641455.1,286047000.4,N
1505641475.8,286046999.0,N
1505641495.7,286046999.6,N
1505641515.5,286046997.0,N
1505641535.3,286046995.3,N
1505641555.2,286046991.8,Y
1505641575.9,286046996.3,P
1505641595.7,286046995.4,N
1505641615.6,286046998.0,N
1505641635.4,286046997.7,N
1505641655.2,286046997.5,N
1505641675.1,286046995.3,Y
1505641676.0,286046995.3,P
1505641695.8,286047002.5,N
1505641715.6,286046998.6,N
1505641735.5,286047000.1,N
1505641755.3,286047004.2,N
1505641775.1,286047002.6,N
1505641795.9,286047007.6,N
1505641815.7,286047006.1,N
1505641835.5,286047010.1,N
1505641855.4,286047004.5,N
1505641875.2,286047003.9,N
1505641895.0,286047001.9,N
1505641895.9,286047001.9,N
1505641915.7,286046999.8,N
1505641935.6,286046998.7,N
1505641955.4,286046996.7,N
1505641975.2,286046999.4,N
1505641995.1,286046998.3,N
1505641996.0,286046998.3,N
1505642015.8,286047001.2,N
1505642035.6,286047000.2,N
1505642055.5,286047000.9,N
1505642075.3,286047001.1,N
1505642095.1,286046998.4,N
1505642115.9,286047001.6,N
1505642135.7,286047001.9,N
1505642155.5,286047003.9,N
1505642175.4,286046999.9,N
1505642195.2,286046998.5,N
1505642215.0,286046998.8,N
1505642215.9,286046998.8,N
1505642235.8,286046997.5,N
1505642255.6,286046997.2,N
1505642275.4,286047001.1,N
1505642295.2,286047000.8,N
1505642315.1,286046999.6,N
1505642316.0,286046999.6,N
1505642335.8,286047001.0,N
1505642355.6,286047000.6,N
1505642375.5,286047001.3,N
1505642395.3,286047001.7,N
